| time (UTC) | temp F | wind direction | speed MPH | gust MPH | rain 1hr in | rain 24hr in | rain mn in | humidity % | barometer mb |
| 20260906005016 | 55 | 0.0 | 0.0 | 0.00 | 0.13 | 0.00 | 90 | 1026.7 | |
| 20260906004015 | 55 | 254 | 1.0 | 2.0 | 0.00 | 0.13 | 0.00 | 90 | 1026.7 |
| 20260906003017 | 56 | 260 | 1.0 | 3.0 | 0.00 | 0.13 | 0.00 | 90 | 1026.7 |
| 20260906002016 | 56 | 262 | 0.0 | 1.0 | 0.00 | 0.13 | 0.00 | 90 | 1026.7 |
| 20260906001017 | 56 | 268 | 1.0 | 2.0 | 0.00 | 0.13 | 0.00 | 89 | 1026.6 |
| 20260906000019 | 56 | 277 | 0.0 | 1.0 | 0.00 | 0.13 | 0.00 | 89 | 1026.6 |
| 20260905235016 | 56 | 329 | 2.0 | 4.0 | 0.00 | 0.13 | 0.00 | 89 | 1026.6 |
| 20260905234016 | 57 | 183 | 0.0 | 1.0 | 0.00 | 0.13 | 0.00 | 89 | 1026.4 |
| 20260905233036 | 57 | 183 | 1.0 | 2.0 | 0.00 | 0.13 | 0.00 | 89 | 1026.6 |
| 20260905232038 | 57 | 183 | 2.0 | 3.0 | 0.00 | 0.13 | 0.00 | 89 | 1026.5 |
| 20260905231015 | 57 | 183 | 2.0 | 4.0 | 0.00 | 0.13 | 0.00 | 88 | 1026.5 |
| 20260905230015 | 57 | 186 | 2.0 | 5.0 | 0.00 | 0.13 | 0.00 | 88 | 1026.5 |
| 20260905225037 | 57 | 208 | 2.0 | 4.0 | 0.00 | 0.13 | 0.00 | 88 | 1026.4 |
| 20260905224016 | 58 | 211 | 1.0 | 3.0 | 0.00 | 0.13 | 0.00 | 88 | 1026.3 |
| 20260905223016 | 58 | 213 | 1.0 | 3.0 | 0.00 | 0.13 | 0.00 | 88 | 1026.3 |
| 20260905222015 | 58 | 208 | 1.0 | 3.0 | 0.00 | 0.13 | 0.00 | 88 | 1026.2 |
| 20260905221017 | 58 | 211 | 1.0 | 4.0 | 0.00 | 0.13 | 0.00 | 88 | 1026.2 |
| 20260905220016 | 58 | 200 | 2.0 | 4.0 | 0.00 | 0.13 | 0.00 | 87 | 1026.2 |
| 20260905215015 | 58 | 197 | 2.0 | 5.0 | 0.00 | 0.13 | 0.13 | 87 | 1026.2 |
| 20260905214016 | 58 | 210 | 1.0 | 2.0 | 0.00 | 0.13 | 0.13 | 87 | 1026.1 |
| 20260905213017 | 59 | 208 | 2.0 | 4.0 | 0.00 | 0.13 | 0.13 | 87 | 1026.0 |
| 20260905212019 | 59 | 191 | 2.0 | 4.0 | 0.00 | 0.13 | 0.13 | 87 | 1026.0 |
| 20260905211015 | 59 | 202 | 1.0 | 2.0 | 0.00 | 0.13 | 0.13 | 86 | 1026.0 |
| 20260905210019 | 60 | 208 | 1.0 | 2.0 | 0.00 | 0.13 | 0.13 | 86 | 1025.9 |
| 20260905205043 | 60 | 208 | 1.0 | 2.0 | 0.00 | 0.13 | 0.13 | 86 | 1025.8 |
| 20260905204019 | 60 | 208 | 0.0 | 1.0 | 0.00 | 0.13 | 0.13 | 86 | 1025.9 |
| 20260905203016 | 61 | 0.0 | 0.0 | 0.00 | 0.13 | 0.13 | 85 | 1025.9 | |
| 20260905202041 | 61 | 0.0 | 0.0 | 0.00 | 0.13 | 0.13 | 85 | 1025.7 | |
| 20260905201017 | 62 | 208 | 0.0 | 2.0 | 0.00 | 0.13 | 0.13 | 83 | 1025.6 |
| 20260905200036 | 63 | 202 | 2.0 | 4.0 | 0.00 | 0.13 | 0.13 | 82 | 1025.5 |
| 20260905195017 | 63 | 214 | 3.0 | 5.0 | 0.00 | 0.13 | 0.13 | 82 | 1025.5 |
| 20260905194015 | 64 | 206 | 3.0 | 6.0 | 0.00 | 0.13 | 0.13 | 81 | 1025.4 |
| 20260905193017 | 64 | 228 | 3.0 | 6.0 | 0.00 | 0.13 | 0.13 | 81 | 1025.2 |
| 20260905192016 | 65 | 217 | 2.0 | 5.0 | 0.00 | 0.13 | 0.13 | 79 | 1025.0 |
| 20260905191018 | 66 | 222 | 4.0 | 8.0 | 0.00 | 0.13 | 0.13 | 79 | 1024.9 |
| 20260905190016 | 66 | 217 | 7.0 | 12.0 | 0.00 | 0.13 | 0.13 | 79 | 1024.6 |
| 20260905185017 | 66 | 211 | 6.0 | 13.0 | 0.00 | 0.13 | 0.13 | 81 | 1024.4 |
| 20260905184017 | 66 | 217 | 6.0 | 12.0 | 0.00 | 0.13 | 0.13 | 83 | 1024.3 |
| 20260905183015 | 66 | 208 | 6.0 | 11.0 | 0.00 | 0.13 | 0.13 | 83 | 1024.2 |
| 20260905182015 | 66 | 204 | 4.0 | 8.0 | 0.00 | 0.13 | 0.13 | 82 | 1024.1 |
| 20260905181017 | 67 | 202 | 5.0 | 9.0 | 0.00 | 0.13 | 0.13 | 82 | 1024.0 |
| 20260905180016 | 67 | 204 | 3.0 | 6.0 | 0.00 | 0.13 | 0.13 | 81 | 1023.9 |
| 20260905175016 | 67 | 204 | 4.0 | 7.0 | 0.00 | 0.13 | 0.13 | 80 | 1023.7 |
| 20260905174015 | 68 | 205 | 4.0 | 8.0 | 0.00 | 0.13 | 0.13 | 79 | 1023.7 |
| 20260905173020 | 68 | 204 | 4.0 | 9.0 | 0.00 | 0.13 | 0.13 | 78 | 1023.5 |
| 20260905172036 | 69 | 203 | 6.0 | 11.0 | 0.00 | 0.13 | 0.13 | 77 | 1023.4 |
| 20260905171024 | 70 | 202 | 5.0 | 9.0 | 0.00 | 0.13 | 0.13 | 76 | 1023.4 |
| 20260905170036 | 70 | 206 | 5.0 | 11.0 | 0.00 | 0.13 | 0.13 | 75 | 1023.3 |
| 20260905165018 | 70 | 212 | 6.0 | 11.0 | 0.00 | 0.13 | 0.13 | 74 | 1023.3 |
| 20260905164018 | 70 | 219 | 5.0 | 10.0 | 0.00 | 0.13 | 0.13 | 73 | 1023.3 |
| 20260905163055 | 70 | 211 | 6.0 | 13.0 | 0.00 | 0.13 | 0.13 | 73 | 1023.3 |
| 20260905162017 | 71 | 208 | 7.0 | 13.0 | 0.00 | 0.13 | 0.13 | 73 | 1023.3 |
| 20260905161035 | 71 | 209 | 6.0 | 11.0 | 0.00 | 0.13 | 0.13 | 72 | 1023.3 |
| 20260905160017 | 71 | 211 | 9.0 | 16.0 | 0.00 | 0.13 | 0.13 | 70 | 1023.2 |
| 20260905155016 | 71 | 222 | 6.0 | 10.0 | 0.00 | 0.13 | 0.13 | 69 | 1023.1 |
| 20260905154017 | 72 | 216 | 5.0 | 11.0 | 0.00 | 0.13 | 0.13 | 69 | 1023.2 |
| 20260905153016 | 72 | 218 | 8.0 | 14.0 | 0.00 | 0.13 | 0.13 | 68 | 1023.2 |
| 20260905152015 | 71 | 207 | 7.0 | 14.0 | 0.00 | 0.13 | 0.13 | 68 | 1023.2 |
| 20260905151017 | 71 | 232 | 7.0 | 12.0 | 0.00 | 0.13 | 0.13 | 68 | 1023.2 |
| 20260905150015 | 71 | 216 | 4.0 | 9.0 | 0.00 | 0.13 | 0.13 | 67 | 1023.2 |
| 20260905145016 | 71 | 223 | 4.0 | 9.0 | 0.00 | 0.13 | 0.13 | 68 | 1023.2 |
| 20260905144016 | 71 | 208 | 7.0 | 16.0 | 0.00 | 0.13 | 0.13 | 70 | 1023.2 |
| 20260905143022 | 71 | 206 | 9.0 | 18.0 | 0.00 | 0.13 | 0.13 | 68 | 1023.3 |
| 20260905142018 | 71 | 209 | 7.0 | 13.0 | 0.00 | 0.13 | 0.13 | 69 | 1023.3 |
| 20260905141015 | 71 | 215 | 6.0 | 12.0 | 0.00 | 0.13 | 0.13 | 68 | 1023.4 |
| 20260905140017 | 70 | 213 | 8.0 | 13.0 | 0.00 | 0.13 | 0.13 | 68 | 1023.4 |
| 20260905135016 | 70 | 214 | 8.0 | 14.0 | 0.00 | 0.13 | 0.13 | 70 | 1023.5 |
| 20260905134041 | 69 | 208 | 9.0 | 15.0 | 0.00 | 0.13 | 0.13 | 70 | 1023.6 |
| 20260905133016 | 69 | 221 | 8.0 | 14.0 | 0.00 | 0.13 | 0.13 | 71 | 1023.7 |
| 20260905132017 | 70 | 225 | 7.0 | 12.0 | 0.00 | 0.13 | 0.13 | 72 | 1023.8 |
| 20260905131016 | 70 | 228 | 6.0 | 13.0 | 0.00 | 0.13 | 0.13 | 73 | 1023.8 |
| 20260905130015 | 70 | 226 | 9.0 | 13.0 | 0.00 | 0.13 | 0.13 | 73 | 1023.9 |
| 20260905125017 | 69 | 224 | 7.0 | 18.0 | 0.00 | 0.13 | 0.13 | 75 | 1023.7 |
| 20260905124016 | 68 | 221 | 8.0 | 16.0 | 0.00 | 0.13 | 0.13 | 76 | 1023.7 |
| 20260905123016 | 67 | 227 | 6.0 | 11.0 | 0.00 | 0.13 | 0.13 | 77 | 1023.7 |
| 20260905122016 | 67 | 230 | 5.0 | 12.0 | 0.00 | 0.13 | 0.13 | 78 | 1023.8 |
| 20260905121017 | 66 | 229 | 7.0 | 12.0 | 0.00 | 0.13 | 0.13 | 79 | 1023.7 |
| 20260905120021 | 66 | 206 | 4.0 | 9.0 | 0.00 | 0.13 | 0.13 | 81 | 1023.6 |
| 20260905115017 | 65 | 222 | 8.0 | 15.0 | 0.00 | 0.13 | 0.13 | 80 | 1023.7 |
| 20260905114018 | 65 | 216 | 7.0 | 13.0 | 0.00 | 0.13 | 0.13 | 81 | 1023.7 |
| 20260905113015 | 65 | 204 | 7.0 | 14.0 | 0.00 | 0.13 | 0.13 | 81 | 1023.7 |
| 20260905112017 | 64 | 196 | 6.0 | 10.0 | 0.00 | 0.13 | 0.13 | 81 | 1023.8 |
| 20260905111016 | 64 | 176 | 5.0 | 10.0 | 0.00 | 0.13 | 0.13 | 81 | 1023.5 |
| 20260905110017 | 64 | 170 | 6.0 | 12.0 | 0.00 | 0.13 | 0.13 | 82 | 1023.6 |
| 20260905105017 | 63 | 179 | 6.0 | 11.0 | 0.00 | 0.13 | 0.13 | 83 | 1023.5 |
| 20260905104015 | 63 | 181 | 3.0 | 7.0 | 0.00 | 0.13 | 0.13 | 84 | 1023.5 |
| 20260905103059 | 63 | 159 | 4.0 | 8.0 | 0.00 | 0.13 | 0.13 | 85 | 1023.4 |
| 20260905102036 | 62 | 177 | 4.0 | 9.0 | 0.00 | 0.13 | 0.13 | 85 | 1023.5 |
| 20260905101038 | 61 | 171 | 1.0 | 5.0 | 0.00 | 0.13 | 0.13 | 85 | 1023.4 |
| 20260905100030 | 61 | 161 | 2.0 | 5.0 | 0.00 | 0.13 | 0.13 | 85 | 1023.6 |
| 20260905095018 | 61 | 166 | 4.0 | 8.0 | 0.00 | 0.13 | 0.13 | 85 | 1023.8 |
| 20260905094017 | 62 | 188 | 4.0 | 12.0 | 0.00 | 0.13 | 0.13 | 85 | 1023.8 |
| 20260905093039 | 61 | 198 | 4.0 | 9.0 | 0.01 | 0.13 | 0.13 | 86 | 1023.7 |
| 20260905092015 | 61 | 200 | 4.0 | 8.0 | 0.01 | 0.13 | 0.13 | 86 | 1023.6 |
| 20260905091015 | 61 | 158 | 2.0 | 6.0 | 0.01 | 0.13 | 0.13 | 87 | 1023.2 |
| 20260905090018 | 61 | 172 | 5.0 | 10.0 | 0.01 | 0.13 | 0.13 | 87 | 1023.0 |
| 20260905085016 | 61 | 179 | 3.0 | 6.0 | 0.01 | 0.13 | 0.13 | 86 | 1023.2 |
| 20260905084017 | 60 | 176 | 3.0 | 6.0 | 0.01 | 0.13 | 0.13 | 85 | 1023.1 |
| 20260905083018 | 61 | 117 | 3.0 | 8.0 | 0.00 | 0.12 | 0.12 | 84 | 1023.1 |
| 20260905082018 | 61 | 155 | 3.0 | 6.0 | 0.00 | 0.12 | 0.12 | 83 | 1023.1 |
| 20260905081016 | 61 | 123 | 2.0 | 5.0 | 0.00 | 0.12 | 0.12 | 83 | 1023.1 |
| 20260905080016 | 61 | 125 | 2.0 | 4.0 | 0.00 | 0.12 | 0.12 | 85 | 1023.1 |
| 20260905075018 | 61 | 144 | 0.0 | 2.0 | 0.00 | 0.12 | 0.12 | 85 | 1023.2 |
| 20260905074027 | 60 | 9 | 2.0 | 5.0 | 0.00 | 0.12 | 0.12 | 86 | 1023.0 |
| 20260905073020 | 60 | 178 | 2.0 | 6.0 | 0.00 | 0.12 | 0.12 | 87 | 1022.9 |
| 20260905072019 | 60 | 121 | 3.0 | 6.0 | 0.01 | 0.12 | 0.12 | 87 | 1022.8 |
| 20260905071017 | 59 | 123 | 1.0 | 4.0 | 0.01 | 0.12 | 0.12 | 88 | 1022.9 |
| 20260905070023 | 59 | 155 | 1.0 | 3.0 | 0.03 | 0.12 | 0.12 | 87 | 1023.0 |
| 20260905065016 | 59 | 147 | 2.0 | 6.0 | 0.05 | 0.12 | 0.12 | 88 | 1022.8 |
| 20260905064021 | 59 | 127 | 3.0 | 6.0 | 0.05 | 0.12 | 0.12 | 87 | 1022.5 |
| 20260905063017 | 59 | 123 | 1.0 | 4.0 | 0.05 | 0.12 | 0.12 | 87 | 1022.5 |
| 20260905062017 | 59 | 123 | 1.0 | 4.0 | 0.04 | 0.11 | 0.11 | 87 | 1022.3 |
| 20260905061016 | 59 | 151 | 2.0 | 3.0 | 0.04 | 0.11 | 0.11 | 86 | 1022.3 |
| 20260905060016 | 59 | 155 | 1.0 | 4.0 | 0.02 | 0.09 | 0.09 | 86 | 1022.4 |
| 20260905055017 | 59 | 132 | 3.0 | 5.0 | 0.01 | 0.07 | 0.07 | 86 | 1022.3 |
| 20260905054040 | 59 | 50 | 1.0 | 3.0 | 0.07 | 0.07 | 0.07 | 86 | 1022.4 |
| 20260905053019 | 59 | 23 | 0.0 | 2.0 | 0.07 | 0.07 | 0.07 | 85 | 1022.1 |
| 20260905052016 | 59 | 305 | 1.0 | 2.0 | 0.07 | 0.07 | 0.07 | 85 | 1022.1 |
| 20260905051019 | 59 | 312 | 1.0 | 4.0 | 0.07 | 0.07 | 0.07 | 84 | 1022.1 |
| 20260905050017 | 59 | 312 | 1.0 | 2.0 | 0.07 | 0.07 | 0.07 | 82 | 1021.8 |
| 20260905045018 | 61 | 316 | 2.0 | 4.0 | 0.06 | 0.06 | 0.06 | 79 | 1021.8 |
| 20260905044015 | 62 | 298 | 4.0 | 7.0 | 0.00 | 0.00 | 0.00 | 73 | 1021.6 |
| 20260905043015 | 64 | 354 | 6.0 | 11.0 | 0.00 | 0.00 | 0.00 | 68 | 1021.1 |
| 20260905042040 | 65 | 344 | 5.0 | 12.0 | 0.00 | 0.00 | 0.00 | 64 | 1020.9 |
| 20260905041016 | 65 | 343 | 6.0 | 12.0 | 0.00 | 0.00 | 0.00 | 64 | 1020.6 |
| 20260905040017 | 65 | 344 | 8.0 | 16.0 | 0.00 | 0.00 | 0.00 | 65 | 1020.3 |
| 20260905035017 | 65 | 333 | 6.0 | 15.0 | 0.00 | 0.00 | 0.00 | 66 | 1020.1 |
| 20260905034038 | 65 | 350 | 8.0 | 14.0 | 0.00 | 0.00 | 0.00 | 66 | 1019.8 |
| 20260905033020 | 66 | 349 | 8.0 | 15.0 | 0.00 | 0.00 | 0.00 | 66 | 1019.7 |
| 20260905032016 | 66 | 336 | 9.0 | 15.0 | 0.00 | 0.00 | 0.00 | 68 | 1019.6 |
| 20260905031017 | 67 | 327 | 9.0 | 17.0 | 0.00 | 0.00 | 0.00 | 70 | 1019.4 |
| 20260905030016 | 68 | 308 | 5.0 | 13.0 | 0.00 | 0.00 | 0.00 | 71 | 1019.0 |
| 20260905025017 | 70 | 322 | 9.0 | 19.0 | 0.00 | 0.00 | 0.00 | 69 | 1018.7 |
| 20260905024017 | 70 | 314 | 7.0 | 17.0 | 0.00 | 0.00 | 0.00 | 69 | 1018.4 |
| 20260905023015 | 70 | 264 | 3.0 | 8.0 | 0.00 | 0.00 | 0.00 | 69 | 1018.1 |
| 20260905022016 | 70 | 255 | 2.0 | 7.0 | 0.00 | 0.00 | 0.00 | 68 | 1018.0 |
| 20260905021018 | 71 | 219 | 3.0 | 8.0 | 0.00 | 0.00 | 0.00 | 67 | 1017.9 |
| 20260905020018 | 71 | 235 | 3.0 | 6.0 | 0.00 | 0.00 | 0.00 | 66 | 1017.9 |
| 20260905015017 | 72 | 235 | 3.0 | 8.0 | 0.00 | 0.00 | 0.00 | 66 | 1017.8 |
| 20260905014020 | 71 | 238 | 4.0 | 9.0 | 0.00 | 0.00 | 0.00 | 66 | 1017.7 |
| 20260905013017 | 71 | 246 | 4.0 | 10.0 | 0.00 | 0.00 | 0.00 | 66 | 1017.8 |
| 20260905012016 | 72 | 247 | 3.0 | 7.0 | 0.00 | 0.00 | 0.00 | 65 | 1017.8 |
| 20260905011015 | 71 | 252 | 3.0 | 7.0 | 0.00 | 0.00 | 0.00 | 66 | 1017.7 |
| 20260905010138 | 71 | 248 | 3.0 | 9.0 | 0.00 | 0.00 | 0.00 | 65 | 1017.6 |